This is the latest recevied weather packets stored in our database for station/object N2PPN. If no packets are shown the sender has not sent any weather packets the latest 10 day(s).
| Time | Temp. | Humidity | Pressure | Rain* | Wind** | Luminosity | Snow |
|---|---|---|---|---|---|---|---|
| 1777461837 | 10.56° C | 77% | 1019.8 hPa | 0 mm | - | 79 W/m² | - |
| 1777461533 | 11.11° C | 76% | 1019.5 hPa | 0 mm | - | 86 W/m² | - |
| 1777461230 | 11.11° C | 75% | 1019.7 hPa | 0 mm | - | 91 W/m² | - |
| 1777460925 | 11.11° C | 77% | 1019.7 hPa | 0 mm | - | 92 W/m² | - |
| 1777460620 | 10.56° C | 79% | 1019.8 hPa | 0 mm | - | 80 W/m² | - |
| 1777460316 | 10.56° C | 79% | 1020 hPa | 0 mm | - | 67 W/m² | - |
| 1777460013 | 10.56° C | 80% | 1019.9 hPa | 0 mm | - | 62 W/m² | - |
| 1777459710 | 10.56° C | 81% | 1020 hPa | 0 mm | - | 54 W/m² | - |
| 1777459407 | 10° C | 83% | 1019.8 hPa | 0 mm | - | 44 W/m² | - |
| 1777459104 | 10° C | 82% | 1019.8 hPa | 0 mm | - | 46 W/m² | - |
| 1777458802 | 10° C | 82% | 1019.9 hPa | 0 mm | - | 41 W/m² | - |
| 1777458498 | 10° C | 83% | 1019.8 hPa | 0 mm | - | 30 W/m² | - |
| 1777457890 | 10° C | 85% | 1019.8 hPa | 0 mm | - | 19 W/m² | - |
| 1777457586 | 10° C | 83% | 1019.7 hPa | 0 mm | - | 14 W/m² | - |
| 1777457282 | 10° C | 84% | 1019.9 hPa | 0 mm | - | 9 W/m² | - |
| 1777456978 | 10° C | 84% | 1019.9 hPa | 0 mm | - | 6 W/m² | - |
| 1777456673 | 10° C | 84% | 1019.9 hPa | 0 mm | - | 4 W/m² | - |
| 1777456368 | 10° C | 84% | 1020 hPa | 0 mm | - | 2 W/m² | - |
| 1777455458 | 10° C | 84% | 1020.1 hPa | 0 mm | - | 0 W/m² | - |
| 1777455153 | 10° C | 85% | 1020 hPa | 0 mm | - | 0 W/m² | - |
| 1777454852 | 10° C | 85% | 1020.1 hPa | 0 mm | - | 0 W/m² | - |
| 1777454547 | 10° C | 85% | 1020.2 hPa | 0 mm | - | 0 W/m² | - |
| 1777454243 | 10° C | 85% | 1020.1 hPa | 0 mm | - | 0 W/m² | - |
| 1777453941 | 9.44° C | 85% | 1020.4 hPa | 0 mm | - | 0 W/m² | - |
| 1777453638 | 9.44° C | 86% | 1020.2 hPa | 0 mm | - | 0 W/m² | - |
* Rain latest hour (hover to see other rain measurements)
** Current wind speed in m/s (hover to see current wind gust speed)